Location: Unspecified
(0.0000°N, 0.0000°E)
Time: 21:04:56
(UTC+02:00)

ATLAS V CENTAUR R/B - Visible Passes

Search period start: 25 September 2016 00:00
Search period end: 05 October 2016 00:00
Orbit: 238 x 28547 km, 17.8° (Epoch: 24 September)

Date Brightness Start Highest point End Pass type
(mag) Time Alt. Az. Time Alt. Az. Time Alt. Az.
25 Sep 6.8 23:36:28 10° NW 00:29:54 36° E 06:53:18 10° ESE visible
27 Sep 7.5 00:28:06 10° WNW 01:19:52 53° E 07:53:31 10° ESE visible
28 Sep 8.0 02:09:39 70° E 02:09:39 70° E 08:50:14 10° ESE visible
29 Sep 9.3 02:59:13 88° SE 02:59:13 88° SE 09:44:50 10° ESE visible
30 Sep 9.0 03:48:36 73° W 04:24:46 79° SW 10:38:03 10° ESE visible
01 Oct 8.4 04:37:47 55° W 05:39:46 65° WSW 11:30:15 10° E visible
01 Oct 5.9 20:10:00 10° NNE 20:10:23 10° NNE 20:10:48 10° NE visible
02 Oct 7.7 05:26:45 39° W 06:40:37 51° WSW 12:21:41 10° E visible
02 Oct 6.1 20:57:52 10° NNW 21:02:12 21° NNE 21:06:35 18° ENE visible
03 Oct 7.0 06:15:32 24° W 07:36:43 36° WSW 13:12:31 10° E visible
03 Oct 6.3 21:47:33 10° NW 21:53:59 35° NNE 04:24:00 10° ESE visible
04 Oct 6.4 07:04:23 10° W 08:30:11 23° WSW 14:02:52 10° ENE visible
